Location: *
(37.4917°N, 71.5558°E)
Time: 20:59:10
(UTC+00:00)

SL-4 R/B - Pass Details

Date: 09 April 2020
Orbit: 428 x 666 km, 51.6° (Epoch: 31 May)

Event Time Altitude Azimuth Distance (km) Brightness Sun altitude
Rises 14:13:00 0° 266° (W) 2,410 6.9 -6.5°
Reaches altitude 10° 14:15:32 10° 284° (WNW) 1,528 6.1 -6.9°
Maximum altitude 14:18:06 20° 333° (NNW) 1,069 4.1 -7.4°
Drops below altitude 10° 14:20:40 10° 22° (NNE) 1,527 4.2 -7.9°
Sets 14:23:11 0° 41° (NE) 2,407 5.1 -8.4°
